Regional Weather Roundup
Issued by NWS

Home | Current Version | Previous Version | Graphics & Text | Print | Product List | Glossary On
Versions: 1 2 3 4 5 6 7 8 9 10 11 12 13 14 15 16 17 18 19 20 21 22 23 24 25 26 27 28 29 30 31 32 33 34 35 36 37 38 39 40 41 42 43 44 45 46 47 48 49 50
000
ASUS43 KLMK 230410
RWRKY
KENTUCKY REGIONAL WEATHER ROUNDUP
NATIONAL WEATHER SERVICE LOUISVILLE KY
1200 AM EDT THU OCT 23 2014

NOTE "FAIR" INDICATES FEW OR NO CLOUDS BELOW 12,000 FEET
WITH NO SIGNIFICANT WEATHER AND/OR OBSTRUCTIONS TO VISIBILITY.

KYZ001>023-026-027-061>063-070>075-230500-
WESTERN AND SOUTH CENTRAL KENTUCKY

CITY           SKY/WX    TMP DP  RH WIND       PRES   REMARKS
PADUCAH        CLEAR     41  40  96 CALM      30.23R
HENDERSON      CLEAR    N/A N/A N/A CALM      30.24S
OWENSBORO      CLEAR     46  42  86 CALM      30.24S
HOPKINSVILLE   CLEAR     46  42  87 NE5       30.22S
BOWLING GREEN  CLEAR     45  40  82 CALM      30.24S
GLASGOW        CLEAR     44  39  83 CALM      30.23F
$$

KYZ024-025-028>034-038-045-046-053-230500-
NORTH CENTRAL KENTUCKY

CITY           SKY/WX    TMP DP  RH WIND       PRES   REMARKS
LOUISVILLE/SDF CLEAR     48  40  73 SE9       30.25S
LOUISVILLE/LOU CLEAR     48  40  73 CALM      30.26S
FORT KNOX      CLEAR     41  39  93 N1        30.24R
$$

KYZ035>037-039>044-047>052-055>060-089>105-230500-
NORTHEAST KENTUCKY

CITY           SKY/WX    TMP DP  RH WIND       PRES   REMARKS
LEXINGTON      CLOUDY    51  41  68 NE7       30.25F
COVINGTON      CLOUDY    49  39  68 E10       30.26S
FRANKFORT      MOCLDY    42  38  85 CALM      30.24F
$$

KYZ054-064>069-076>088-106>120-230500-
SOUTHEAST KENTUCKY

CITY           SKY/WX    TMP DP  RH WIND       PRES   REMARKS
JACKSON        CLOUDY    48  42  80 CALM      30.23F
LONDON         CLOUDY    49  41  74 NE5       30.23F
SOMERSET       CLOUDY    46  39  76 CALM      30.25F
MIDDLESBORO    CLOUDY    48  42  80 CALM      30.24S
MONTICELLO     CLOUDY    48  43  83 CALM      30.25F
$$




USA.gov is the U.S. government's official web portal to all federal, state and local government web resources and services.